Location: Skalnate Pleso
(49.1889°N, 20.2450°E)
Time: 02:23:50
(UTC+02:00)

Cosmos 1605 Rocket - Pass Details

Date: 28 February 2020
Orbit: 944 x 1007 km, 82.9° (Epoch: 01 April)

Event Time Altitude Azimuth Distance (km) Brightness Sun altitude
Rises 04:27:03 0° 340° (NNW) 3,667 6.9 -20.0°
Reaches altitude 10° 04:30:14 10° 324° (NW) 2,704 6.1 -19.5°
Enters shadow 04:31:44 15° 312° (NW) 2,353 5.7 -19.2°
